[Date Prev][Date Next][Thread Prev][Thread Next] - [Date Index][Thread Index][Author Index]
2 Line ISS Keps 4-16
- Subject: [sarex] 2 Line ISS Keps 4-16
- From: "Dave Larsen PhD" <doc@xxxxxxxxxxx>
- Date: Tue, 16 Apr 2002 02:15:40 -0700
ISS
1 25544U 98067A 02106.25000000 -.00000519 00000-0 00000+0 0 3131
2 25544 51.6350 4.0943 0004270 3.6438 185.3400 15.59978039194369
----
Via the sarex mailing list at AMSAT.ORG courtesy of AMSAT-NA.
To unsubscribe, send "unsubscribe sarex" to Majordomo@amsat.org
AMSAT Home